La Crosse, WI

11:49 AM CDT on April 29, 2017 (GMT -0500)
La Crosse Municipal

Weather History for KLSE - April, 2014

Change the Weather History Date:

Wednesday, April 16, 2014

  Actual Average Record
Temperature  
Mean Temperature 44 °F 49 °F  
Max Temperature 55 °F 60 °F 87 °F (1964)
Min Temperature 32 °F 38 °F 13 °F (1875)
Degree Days  
Heating Degree Days 21 16  
Month to date heating degree days 356 314  
Since 1 July heating degree days 7701 6767  
Cooling Degree Days 0 0  
Month to date cooling degree days 0 0  
Year to date cooling degree days 0 0  
Moisture  
Dew Point 24 °F    
Average Humidity 47    
Maximum Humidity 59    
Minimum Humidity 35    
Precipitation  
Precipitation 0.00 in 0.12 in 0.95 in (1960)
Month to date precipitation 3.74 1.66  
Year to date precipitation 7.41 5.87  
Snow  
Snow 0.00 in 0.00 in 6.60 in (1910)
Month to date snowfall 2.3 1.2  
Since 1 July snowfall 48.9 42.8  
Snow Depth 0.00 in    
Sea Level Pressure  
Sea Level Pressure 30.01 in    
Wind  
Wind Speed 16 mph (SE)    
Max Wind Speed 25 mph    
Max Gust Speed 36 mph    
Visibility 10 miles    
Events      
T = Trace of Precipitation, MM = Missing Value Source: NWS Daily Summary

Daily Weather History Graph

Daily Weather History Graph

Search for Another Location

Airport or City:

Trip Planner

Search our weather history database for the weather conditions in past years. The results will help you decide how hot, cold, wet, or windy it might be!

Date:

Astronomy

Apr. 16, 2014 Rise Set
Actual Time 6:20 AM CDT 7:50 PM CDT
Civil Twilight 5:50 AM CDT 8:20 PM CDT
Nautical Twilight 5:13 AM CDT 8:56 PM CDT
Astronomical Twilight 4:35 AM CDT 9:35 PM CDT
Moon 9:37 PM CDT (4/16) 7:05 AM CDT (4/16)
Length of Visible Light 14h 30m
Length of Day
13h 29m
Full, 98% of the Moon is Illuminated
Apr 16
Full
Apr 22
Last Quarter
Apr 29
New
May 6
First Quarter
May 14
Full

Hourly Weather History & Observations

Time (CDT) Temp. Windchill Dew Point Humidity Pressure Visibility Wind Dir Wind Speed Gust Speed Precip Events Conditions
12:53 AM 32.0 °F 26.4 °F 18.0 °F 56% 30.17 in 10.0 mi ESE 5.8 mph - N/A   Overcast
1:53 AM 32.0 °F 24.8 °F 19.0 °F 59% 30.15 in 10.0 mi East 8.1 mph - N/A   Overcast
2:53 AM 32.0 °F 25.6 °F 19.9 °F 61% 30.15 in 10.0 mi SE 6.9 mph - N/A   Overcast
3:53 AM 33.1 °F 25.5 °F 17.1 °F 52% 30.14 in 10.0 mi ESE 9.2 mph - N/A   Overcast
4:53 AM 33.1 °F 25.5 °F 17.1 °F 52% 30.14 in 10.0 mi ESE 9.2 mph - N/A   Overcast
5:53 AM 34.0 °F 25.5 °F 17.1 °F 50% 30.14 in 10.0 mi SE 11.5 mph - N/A   Overcast
6:53 AM 34.0 °F 23.8 °F 18.0 °F 52% 30.10 in 10.0 mi ESE 16.1 mph 23.0 mph N/A   Overcast
7:53 AM 37.0 °F 28.1 °F 18.0 °F 46% 30.11 in 10.0 mi SE 15.0 mph - N/A   Overcast
8:53 AM 37.9 °F 28.9 °F 19.9 °F 48% 30.08 in 10.0 mi SE 16.1 mph 25.3 mph N/A   Overcast
9:53 AM 42.1 °F 34.2 °F 21.9 °F 45% 30.06 in 10.0 mi SE 16.1 mph - N/A   Overcast
10:53 AM 46.0 °F 39.0 °F 24.1 °F 42% 30.02 in 10.0 mi SSE 17.3 mph 23.0 mph N/A   Partly Cloudy
11:53 AM 48.9 °F - 25.0 °F 39% 30.00 in 10.0 mi SSE 19.6 mph 27.6 mph N/A   Partly Cloudy
12:53 PM 54.0 °F - 28.0 °F 37% 29.97 in 10.0 mi SSE 17.3 mph 25.3 mph N/A   Partly Cloudy
1:53 PM 54.0 °F - 27.0 °F 35% 29.95 in 10.0 mi South 19.6 mph 27.6 mph N/A   Clear
2:53 PM 54.0 °F - 27.0 °F 35% 29.93 in 10.0 mi SSE 23.0 mph 33.4 mph N/A   Scattered Clouds
3:53 PM 54.0 °F - 28.0 °F 37% 29.91 in 10.0 mi SSE 18.4 mph 27.6 mph N/A   Mostly Cloudy
4:53 PM 54.0 °F - 28.0 °F 37% 29.92 in 10.0 mi SSE 10.4 mph - N/A   Overcast
5:53 PM 54.0 °F - 28.0 °F 37% 29.92 in 10.0 mi SSE 12.7 mph 23.0 mph N/A   Overcast
6:53 PM 53.1 °F - 27.0 °F 37% 29.91 in 10.0 mi SSE 24.2 mph 29.9 mph N/A   Overcast
7:53 PM 52.0 °F - 28.0 °F 40% 29.91 in 10.0 mi SE 19.6 mph 26.5 mph N/A   Overcast
8:53 PM 52.0 °F - 28.0 °F 40% 29.92 in 10.0 mi SE 20.7 mph 27.6 mph N/A   Overcast
9:53 PM 51.1 °F - 28.0 °F 41% 29.92 in 10.0 mi SE 16.1 mph 25.3 mph N/A   Overcast
10:53 PM 51.1 °F - 28.0 °F 41% 29.91 in 10.0 mi SE 16.1 mph 26.5 mph N/A   Overcast
11:53 PM 50.0 °F - 28.0 °F 43% 29.89 in 10.0 mi SE 21.9 mph 26.5 mph N/A   Overcast